Torna al catalogo

METEOR 2-21

AttivoMeteoPO
NORAD 22782·PAYLOAD·🇷🇺 Russia

Lanciato Aug 31, 1993 da Plesetsk Cosmodrome

Loading…

Prossimi Passaggi (prossime 24 ore)

TLE

AggiornatoSource: Space-Track

Epoca: Sep 14, 2026, 08:54 UTC

1 22782U 93055A   26257.37149951  .00000018  00000-0  26331-5 0  9993
2 22782  82.5479 223.9396 0021396 321.4037 202.5608 13.84032799668383

Traccia METEOR 2-21 in tempo reale con AllMySat

Download on the App Store